UAL1035 MYNN-KMCO

Flight info

Callsign UAL1035
Flight time 0h 52m
Altitude 32000
Route PEACH DCT CCLUB RIDES2
Aircraft B77W/H-SDE1E2E3FGHIJ2J3J4J5M1RWXY/LB1D1

Departure

Time 2026-04-22 13:59
Airport Lynden Pindling International Airport (MYNN)

Arrival

Time 2026-04-22 14:51
Airport Orlando International Airport (KMCO)
Time Latitude Longitude Altitude Speed Heading
2026-04-22 13:26 25.04871 -77.46830 22 ft 0 kts 146°
2026-04-22 13:47 25.04882 -77.46838 26 ft 4 kts 146°
2026-04-22 13:47 25.04905 -77.46855 23 ft 4 kts 149°
2026-04-22 13:47 25.04920 -77.46864 24 ft 4 kts 162°
2026-04-22 13:47 25.04943 -77.46863 25 ft 1 kts 245°
2026-04-22 13:48 25.04945 -77.46858 25 ft 0 kts 245°
2026-04-22 13:51 25.04944 -77.46860 25 ft 2 kts 245°
2026-04-22 13:51 25.04929 -77.46895 26 ft 6 kts 245°
2026-04-22 13:51 25.04901 -77.46944 26 ft 6 kts 216°
2026-04-22 13:51 25.04868 -77.46951 26 ft 5 kts 169°
2026-04-22 13:52 25.04837 -77.46926 25 ft 7 kts 134°
2026-04-22 13:52 25.04784 -77.46865 27 ft 14 kts 135°
2026-04-22 13:52 25.04760 -77.46839 27 ft 14 kts 135°
2026-04-22 13:52 25.04637 -77.46707 25 ft 16 kts 135°
2026-04-22 13:54 25.04153 -77.46170 24 ft 20 kts 134°
2026-04-22 13:54 25.04088 -77.46097 25 ft 20 kts 134°
2026-04-22 13:54 25.03957 -77.45951 26 ft 20 kts 134°
2026-04-22 13:54 25.03892 -77.45879 26 ft 20 kts 134°
2026-04-22 13:55 25.03762 -77.45735 24 ft 20 kts 134°
2026-04-22 13:55 25.03664 -77.45625 27 ft 20 kts 134°
2026-04-22 13:55 25.03565 -77.45517 26 ft 20 kts 135°
2026-04-22 13:55 25.03500 -77.45445 25 ft 20 kts 135°
2026-04-22 13:56 25.03368 -77.45300 25 ft 20 kts 134°
2026-04-22 13:56 25.03274 -77.45199 25 ft 17 kts 143°
2026-04-22 13:56 25.03177 -77.45186 26 ft 14 kts 188°
2026-04-22 13:56 25.03105 -77.45218 28 ft 9 kts 227°
2026-04-22 13:57 25.03119 -77.45278 31 ft 9 kts 313°
2026-04-22 13:57 25.03133 -77.45294 28 ft 1 kts 315°
2026-04-22 13:58 25.03204 -77.45373 28 ft 50 kts 315°
2026-04-22 13:58 25.03739 -77.45959 28 ft 165 kts 312°
2026-04-22 13:58 25.04210 -77.46496 34 ft 217 kts 316°
2026-04-22 13:58 25.04454 -77.46776 107 ft 231 kts 316°
2026-04-22 13:59 25.05594 -77.48027 1607 ft 226 kts 321°
2026-04-22 13:59 25.06878 -77.49119 3117 ft 243 kts 335°
2026-04-22 13:59 25.07854 -77.49746 3915 ft 248 kts 334°
2026-04-22 13:59 25.09830 -77.51204 4827 ft 260 kts 329°
2026-04-22 14:00 25.11322 -77.52366 5010 ft 264 kts 328°
2026-04-22 14:00 25.12321 -77.53150 4998 ft 267 kts 328°
2026-04-22 14:00 25.13839 -77.54344 5011 ft 268 kts 328°
2026-04-22 14:00 25.15870 -77.55943 5101 ft 270 kts 329°
2026-04-22 14:01 25.17389 -77.57137 5976 ft 269 kts 329°
2026-04-22 14:01 25.18913 -77.58336 7009 ft 268 kts 328°
2026-04-22 14:01 25.20422 -77.59522 7935 ft 270 kts 328°
2026-04-22 14:01 25.21929 -77.60706 8983 ft 267 kts 327°
2026-04-22 14:02 25.23457 -77.61907 10080 ft 264 kts 325°
2026-04-22 14:02 25.24971 -77.63098 10891 ft 270 kts 325°
2026-04-22 14:02 25.26563 -77.64350 11260 ft 295 kts 324°
2026-04-22 14:02 25.28312 -77.65727 11466 ft 324 kts 324°
2026-04-22 14:03 25.30232 -77.67238 11668 ft 353 kts 324°
2026-04-22 14:03 25.32313 -77.68876 11922 ft 378 kts 324°
2026-04-22 14:03 25.33753 -77.70010 12337 ft 387 kts 324°
2026-04-22 14:03 25.36721 -77.72348 13454 ft 395 kts 324°
2026-04-22 14:04 25.38212 -77.73522 14043 ft 398 kts 323°
2026-04-22 14:04 25.41264 -77.75929 15111 ft 405 kts 323°
2026-04-22 14:04 25.43536 -77.77783 15947 ft 406 kts 320°
2026-04-22 14:04 25.45702 -77.79810 16871 ft 408 kts 317°
2026-04-22 14:05 25.47858 -77.81882 17646 ft 414 kts 317°
2026-04-22 14:05 25.50040 -77.83993 18376 ft 420 kts 317°
2026-04-22 14:05 25.54497 -77.88308 19668 ft 429 kts 316°
2026-04-22 14:06 25.56725 -77.90460 20333 ft 433 kts 317°
2026-04-22 14:06 25.59012 -77.92667 20929 ft 438 kts 317°
2026-04-22 14:06 25.60578 -77.94176 21355 ft 441 kts 317°
2026-04-22 14:06 25.62114 -77.95655 21785 ft 443 kts 317°
2026-04-22 14:07 25.65986 -77.99382 22979 ft 444 kts 316°
2026-04-22 14:07 25.67444 -78.00787 23355 ft 446 kts 316°
2026-04-22 14:07 25.68208 -78.01523 23531 ft 448 kts 316°
2026-04-22 14:07 25.72946 -78.06092 24450 ft 455 kts 316°
2026-04-22 14:08 25.74534 -78.07624 24751 ft 457 kts 316°
2026-04-22 14:08 25.77743 -78.10723 25399 ft 459 kts 316°
2026-04-22 14:08 25.80160 -78.13057 25964 ft 459 kts 316°
2026-04-22 14:08 25.82558 -78.15374 26714 ft 454 kts 316°
2026-04-22 14:09 25.84925 -78.17661 27464 ft 450 kts 315°
2026-04-22 14:09 25.87280 -78.19938 28243 ft 446 kts 315°
2026-04-22 14:09 25.89615 -78.22198 29020 ft 443 kts 315°
2026-04-22 14:09 25.91930 -78.24441 29778 ft 440 kts 315°
2026-04-22 14:10 25.94231 -78.26672 30507 ft 437 kts 314°
2026-04-22 14:10 25.95745 -78.28140 30931 ft 435 kts 314°
2026-04-22 14:10 25.98782 -78.31087 31782 ft 431 kts 314°
2026-04-22 14:10 26.01032 -78.33272 32231 ft 432 kts 314°
2026-04-22 14:11 26.03294 -78.35471 32233 ft 429 kts 314°
2026-04-22 14:11 26.07023 -78.39098 32248 ft 429 kts 314°
2026-04-22 14:12 26.12256 -78.44194 32259 ft 431 kts 314°
2026-04-22 14:12 26.16778 -78.48601 32260 ft 432 kts 314°
2026-04-22 14:13 26.21310 -78.53021 32252 ft 433 kts 314°
2026-04-22 14:13 26.25069 -78.56691 32253 ft 432 kts 314°
2026-04-22 14:14 26.30354 -78.61855 32260 ft 431 kts 314°
2026-04-22 14:14 26.34854 -78.66259 32261 ft 430 kts 314°
2026-04-22 14:15 26.39348 -78.70661 32265 ft 430 kts 314°
2026-04-22 14:15 26.42325 -78.73580 32296 ft 430 kts 314°
2026-04-22 14:16 26.48328 -78.79473 32261 ft 430 kts 314°
2026-04-22 14:16 26.52784 -78.83853 32260 ft 429 kts 314°
2026-04-22 14:17 26.57267 -78.88263 32265 ft 429 kts 314°
2026-04-22 14:17 26.61748 -78.92677 32264 ft 429 kts 314°
2026-04-22 14:18 26.63995 -78.94891 32264 ft 429 kts 314°
2026-04-22 14:18 26.69191 -79.00018 32267 ft 429 kts 314°
2026-04-22 14:19 26.74969 -79.05727 32286 ft 429 kts 314°
2026-04-22 14:19 26.79452 -79.10161 32274 ft 430 kts 314°
2026-04-22 14:20 26.86171 -79.16817 32267 ft 430 kts 314°
2026-04-22 14:20 26.90647 -79.21257 32269 ft 430 kts 314°
2026-04-22 14:21 26.97356 -79.27921 32271 ft 430 kts 314°
2026-04-22 14:22 27.04035 -79.34567 32272 ft 429 kts 314°
2026-04-22 14:23 27.09259 -79.39773 32281 ft 430 kts 314°
2026-04-22 14:23 27.15211 -79.45713 32272 ft 430 kts 314°
2026-04-22 14:24 27.19688 -79.50185 32267 ft 431 kts 314°
2026-04-22 14:24 27.22829 -79.54451 32259 ft 418 kts 294°
2026-04-22 14:25 27.25768 -79.61287 32293 ft 420 kts 294°
2026-04-22 14:25 27.27954 -79.66176 32290 ft 423 kts 295°
2026-04-22 14:26 27.31067 -79.73072 32257 ft 415 kts 295°
2026-04-22 14:26 27.32346 -79.75905 32254 ft 399 kts 295°
2026-04-22 14:26 27.33583 -79.78649 32259 ft 389 kts 294°
2026-04-22 14:27 27.35609 -79.83156 32101 ft 388 kts 294°
2026-04-22 14:27 27.36817 -79.85849 31722 ft 385 kts 294°
2026-04-22 14:27 27.38023 -79.88539 31239 ft 383 kts 294°
2026-04-22 14:27 27.39220 -79.91208 30786 ft 381 kts 294°
2026-04-22 14:28 27.40410 -79.93864 30312 ft 379 kts 294°
2026-04-22 14:28 27.41593 -79.96507 29767 ft 377 kts 294°
2026-04-22 14:28 27.42769 -79.99134 29273 ft 374 kts 294°
2026-04-22 14:28 27.43871 -80.01597 28787 ft 372 kts 294°
2026-04-22 14:29 27.45031 -80.04193 28295 ft 370 kts 295°
2026-04-22 14:29 27.45797 -80.05908 27958 ft 369 kts 295°
2026-04-22 14:29 27.47318 -80.09315 27301 ft 366 kts 295°
2026-04-22 14:29 27.48457 -80.11868 26855 ft 364 kts 295°
2026-04-22 14:30 27.49593 -80.14416 26394 ft 363 kts 295°
2026-04-22 14:30 27.50719 -80.16942 25946 ft 361 kts 295°
2026-04-22 14:30 27.51841 -80.19463 25548 ft 358 kts 295°
2026-04-22 14:30 27.52952 -80.21959 25128 ft 356 kts 295°
2026-04-22 14:31 27.54056 -80.24439 24683 ft 354 kts 295°
2026-04-22 14:31 27.55159 -80.26922 24258 ft 353 kts 295°
2026-04-22 14:31 27.56257 -80.29393 23831 ft 352 kts 295°
2026-04-22 14:31 27.57351 -80.31856 23338 ft 351 kts 295°
2026-04-22 14:32 27.58444 -80.34318 22870 ft 350 kts 295°
2026-04-22 14:32 27.59529 -80.36764 22416 ft 349 kts 295°
2026-04-22 14:32 27.60613 -80.39210 21925 ft 348 kts 295°
2026-04-22 14:32 27.61692 -80.41646 21481 ft 347 kts 295°
2026-04-22 14:33 27.62770 -80.44081 21032 ft 346 kts 295°
2026-04-22 14:33 27.63842 -80.46503 20578 ft 346 kts 295°
2026-04-22 14:33 27.64909 -80.48916 20042 ft 339 kts 295°
2026-04-22 14:33 27.65961 -80.51296 19263 ft 340 kts 295°
2026-04-22 14:34 27.67016 -80.53686 18389 ft 341 kts 294°
2026-04-22 14:34 27.68072 -80.56077 17484 ft 340 kts 295°
2026-04-22 14:34 27.69122 -80.58458 16756 ft 335 kts 295°
2026-04-22 14:34 27.70150 -80.60792 16041 ft 331 kts 294°
2026-04-22 14:35 27.71178 -80.63121 15210 ft 331 kts 294°
2026-04-22 14:35 27.71507 -80.63869 14960 ft 331 kts 294°
2026-04-22 14:36 27.75050 -80.71926 12321 ft 323 kts 296°
2026-04-22 14:36 27.76050 -80.74199 11601 ft 324 kts 296°
2026-04-22 14:36 27.77422 -80.77323 11062 ft 324 kts 296°
2026-04-22 14:36 27.77749 -80.78061 10968 ft 322 kts 296°
2026-04-22 14:37 27.79436 -80.81838 10373 ft 320 kts 296°
2026-04-22 14:37 27.80424 -80.84045 10052 ft 319 kts 297°
2026-04-22 14:37 27.81422 -80.86274 9667 ft 317 kts 297°
2026-04-22 14:37 27.82401 -80.88466 9251 ft 306 kts 297°
2026-04-22 14:38 27.83336 -80.90562 8796 ft 295 kts 297°
2026-04-22 14:38 27.84260 -80.92636 8429 ft 288 kts 297°
2026-04-22 14:38 27.85161 -80.94657 8170 ft 290 kts 298°
2026-04-22 14:38 27.86069 -80.96694 8045 ft 289 kts 298°
2026-04-22 14:39 27.86954 -80.98681 7995 ft 283 kts 297°
2026-04-22 14:39 27.87796 -81.00571 7959 ft 278 kts 298°
2026-04-22 14:39 27.88654 -81.02498 7952 ft 281 kts 298°
2026-04-22 14:40 27.90125 -81.05812 7763 ft 276 kts 298°
2026-04-22 14:40 27.91234 -81.08408 7210 ft 276 kts 296°
2026-04-22 14:40 27.91772 -81.09700 7077 ft 271 kts 296°
2026-04-22 14:40 27.92821 -81.12239 6777 ft 264 kts 296°
2026-04-22 14:41 27.93749 -81.14013 6309 ft 263 kts 309°
2026-04-22 14:41 27.94895 -81.15638 5907 ft 264 kts 311°
2026-04-22 14:41 27.96069 -81.17231 5612 ft 262 kts 312°
2026-04-22 14:41 27.97215 -81.18776 5472 ft 249 kts 314°
2026-04-22 14:42 27.98516 -81.19939 5329 ft 230 kts 334°
2026-04-22 14:42 27.99881 -81.20789 5138 ft 216 kts 335°
2026-04-22 14:42 28.01174 -81.21597 4699 ft 210 kts 335°
2026-04-22 14:42 28.02458 -81.22371 4222 ft 213 kts 338°
2026-04-22 14:43 28.03797 -81.23061 3911 ft 211 kts 340°
2026-04-22 14:43 28.05128 -81.23736 3611 ft 209 kts 340°
2026-04-22 14:43 28.06480 -81.24344 3249 ft 208 kts 343°
2026-04-22 14:43 28.07806 -81.24926 3048 ft 199 kts 343°
2026-04-22 14:44 28.09090 -81.25491 2999 ft 201 kts 343°
2026-04-22 14:44 28.10415 -81.26049 2971 ft 204 kts 346°
2026-04-22 14:44 28.11326 -81.26326 2986 ft 205 kts 351°
2026-04-22 14:44 28.13191 -81.26846 2983 ft 206 kts 349°
2026-04-22 14:45 28.14087 -81.27127 2955 ft 195 kts 349°
2026-04-22 14:45 28.15758 -81.27661 2980 ft 180 kts 349°
2026-04-22 14:45 28.16944 -81.28041 2984 ft 176 kts 349°
2026-04-22 14:45 28.18141 -81.28426 2995 ft 183 kts 349°
2026-04-22 14:46 28.19380 -81.28809 2996 ft 186 kts 350°
2026-04-22 14:46 28.20214 -81.29008 2987 ft 183 kts 355°
2026-04-22 14:46 28.21448 -81.29218 2979 ft 176 kts 357°
2026-04-22 14:46 28.22706 -81.29335 3021 ft 190 kts
2026-04-22 14:47 28.24477 -81.29397 2962 ft 186 kts
2026-04-22 14:47 28.25735 -81.29414 2981 ft 178 kts
2026-04-22 14:47 28.26927 -81.29426 2763 ft 167 kts
2026-04-22 14:47 28.28058 -81.29437 2599 ft 159 kts
2026-04-22 14:48 28.28716 -81.29443 2487 ft 156 kts
2026-04-22 14:48 28.29800 -81.29453 2256 ft 156 kts
2026-04-22 14:48 28.31224 -81.29466 1983 ft 156 kts
2026-04-22 14:48 28.31962 -81.29473 1859 ft 158 kts
2026-04-22 14:49 28.33033 -81.29484 1645 ft 156 kts
2026-04-22 14:49 28.34122 -81.29505 1445 ft 155 kts
2026-04-22 14:49 28.35196 -81.29540 1194 ft 154 kts
2026-04-22 14:49 28.36250 -81.29531 943 ft 147 kts
2026-04-22 14:50 28.37258 -81.29547 759 ft 148 kts
2026-04-22 14:50 28.38300 -81.29550 581 ft 157 kts
2026-04-22 14:50 28.39404 -81.29554 398 ft 154 kts
2026-04-22 14:50 28.40461 -81.29557 175 ft 147 kts
2026-04-22 14:51 28.41455 -81.29562 104 ft 132 kts 358°
2026-04-22 14:51 28.42192 -81.29570 102 ft 80 kts
2026-04-22 14:51 28.42577 -81.29580 100 ft 43 kts 359°
2026-04-22 14:51 28.42839 -81.29613 104 ft 23 kts 330°
2026-04-22 14:52 28.42908 -81.29723 102 ft 16 kts 281°
2026-04-22 14:52 28.42909 -81.29821 102 ft 6 kts 269°
2026-04-22 14:52 28.42896 -81.29864 101 ft 6 kts 225°
2026-04-22 14:52 28.42836 -81.29881 101 ft 10 kts 185°
2026-04-22 14:53 28.42766 -81.29883 100 ft 10 kts 181°
2026-04-22 14:53 28.42733 -81.29916 100 ft 5 kts 265°
2026-04-22 14:53 28.42751 -81.29948 102 ft 5 kts 318°
2026-04-22 14:53 28.42776 -81.29980 102 ft 4 kts 309°
2026-04-22 14:54 28.42791 -81.30000 102 ft 0 kts 309°